owner,sensor,date,latitude,longitude,sea_surface_height_above_sea_level,qcFlag 
TCOON,ioos:station:TCOON:068:1,2015-12-01T00:30:00Z,27.2970,-97.4049,4.515,1111122 
TCOON,ioos:station:TCOON:068:1,2015-12-01T01:24:00Z,27.2970,-97.4049,4.514,1111122 
TCOON,ioos:station:TCOON:068:1,2015-12-01T02:30:00Z,27.2970,-97.4049,4.51,1111122 
TCOON,ioos:station:TCOON:068:1,2015-12-01T03:18:00Z,27.2970,-97.4049,4.508,1111122 
TCOON,ioos:station:TCOON:068:1,2015-12-01T04:24:00Z,27.2970,-97.4049,4.506,1111122 
TCOON,ioos:station:TCOON:068:1,2015-12-01T05:30:00Z,27.2970,-97.4049,4.504,1111122 
TCOON,ioos:station:TCOON:068:1,2015-12-01T06:24:00Z,27.2970,-97.4049,4.499,1111122 
TCOON,ioos:station:TCOON:068:1,2015-12-01T07:24:00Z,27.2970,-97.4049,4.502,1111122 
TCOON,ioos:station:TCOON:068:1,2015-12-01T08:30:00Z,27.2970,-97.4049,4.504,1111122 
TCOON,ioos:station:TCOON:068:1,2015-12-01T09:24:00Z,27.2970,-97.4049,4.502,1111122 
TCOON,ioos:station:TCOON:068:1,2015-12-01T10:30:00Z,27.2970,-97.4049,4.494,1111122 
TCOON,ioos:station:TCOON:068:1,2015-12-01T11:24:00Z,27.2970,-97.4049,4.496,1111122 
TCOON,ioos:station:TCOON:068:1,2015-12-01T12:24:00Z,27.2970,-97.4049,4.497,1111122 
TCOON,ioos:station:TCOON:068:1,2015-12-01T13:30:00Z,27.2970,-97.4049,4.498,1111122 
TCOON,ioos:station:TCOON:068:1,2015-12-01T14:24:00Z,27.2970,-97.4049,4.497,1111122 
TCOON,ioos:station:TCOON:068:1,2015-12-01T15:30:00Z,27.2970,-97.4049,4.495,1111122 
TCOON,ioos:station:TCOON:068:1,2015-12-01T16:36:00Z,27.2970,-97.4049,4.498,1111122 
TCOON,ioos:station:TCOON:068:1,2015-12-01T17:24:00Z,27.2970,-97.4049,4.463,1111122 
TCOON,ioos:station:TCOON:068:1,2015-12-01T18:36:00Z,27.2970,-97.4049,4.502,1111122 
TCOON,ioos:station:TCOON:068:1,2015-12-01T19:30:00Z,27.2970,-97.4049,4.499,1111122 
TCOON,ioos:station:TCOON:068:1,2015-12-01T20:30:00Z,27.2970,-97.4049,4.499,1111122 
TCOON,ioos:station:TCOON:068:1,2015-12-01T21:30:00Z,27.2970,-97.4049,4.496,1111122 
TCOON,ioos:station:TCOON:068:1,2015-12-01T22:24:00Z,27.2970,-97.4049,4.492,1111122 
TCOON,ioos:station:TCOON:068:1,2015-12-01T23:30:00Z,27.2970,-97.4049,4.493,1111122 
TCOON,ioos:station:TCOON:068:1,2015-12-02T00:30:00Z,27.2970,-97.4049,4.492,1111122 
TCOON,ioos:station:TCOON:068:1,2015-12-02T01:30:00Z,27.2970,-97.4049,4.492,1111122 
TCOON,ioos:station:TCOON:068:1,2015-12-02T02:30:00Z,27.2970,-97.4049,4.491,1111122 
TCOON,ioos:station:TCOON:068:1,2015-12-02T03:24:00Z,27.2970,-97.4049,4.487,1111122 
TCOON,ioos:station:TCOON:068:1,2015-12-02T04:18:00Z,27.2970,-97.4049,4.485,1111122 
TCOON,ioos:station:TCOON:068:1,2015-12-02T05:24:00Z,27.2970,-97.4049,4.473,1111122 
TCOON,ioos:station:TCOON:068:1,2015-12-02T06:36:00Z,27.2970,-97.4049,4.476,1111122 
TCOON,ioos:station:TCOON:068:1,2015-12-02T07:24:00Z,27.2970,-97.4049,4.47,1111122 
TCOON,ioos:station:TCOON:068:1,2015-12-02T08:30:00Z,27.2970,-97.4049,4.472,1111122 
TCOON,ioos:station:TCOON:068:1,2015-12-02T09:24:00Z,27.2970,-97.4049,4.477,1111122 
TCOON,ioos:station:TCOON:068:1,2015-12-02T10:30:00Z,27.2970,-97.4049,4.474,1111122 
TCOON,ioos:station:TCOON:068:1,2015-12-02T11:24:00Z,27.2970,-97.4049,4.476,1111122 
TCOON,ioos:station:TCOON:068:1,2015-12-02T12:30:00Z,27.2970,-97.4049,4.467,1111122 
TCOON,ioos:station:TCOON:068:1,2015-12-02T13:30:00Z,27.2970,-97.4049,4.463,1111122 
TCOON,ioos:station:TCOON:068:1,2015-12-02T14:24:00Z,27.2970,-97.4049,4.47,1111122 
TCOON,ioos:station:TCOON:068:1,2015-12-02T15:30:00Z,27.2970,-97.4049,4.475,1111122 
TCOON,ioos:station:TCOON:068:1,2015-12-02T16:30:00Z,27.2970,-97.4049,4.482,1111122 
TCOON,ioos:station:TCOON:068:1,2015-12-02T17:30:00Z,27.2970,-97.4049,4.474,1111122 
TCOON,ioos:station:TCOON:068:1,2015-12-02T18:36:00Z,27.2970,-97.4049,4.468,1111122 
TCOON,ioos:station:TCOON:068:1,2015-12-02T19:30:00Z,27.2970,-97.4049,4.468,1111122 
TCOON,ioos:station:TCOON:068:1,2015-12-02T20:24:00Z,27.2970,-97.4049,4.468,1111122 
TCOON,ioos:station:TCOON:068:1,2015-12-02T21:30:00Z,27.2970,-97.4049,4.474,1111122 
TCOON,ioos:station:TCOON:068:1,2015-12-02T22:30:00Z,27.2970,-97.4049,4.472,1111122 
TCOON,ioos:station:TCOON:068:1,2015-12-02T23:24:00Z,27.2970,-97.4049,4.468,1111122 
TCOON,ioos:station:TCOON:068:1,2015-12-03T00:30:00Z,27.2970,-97.4049,4.463,1111122 
TCOON,ioos:station:TCOON:068:1,2015-12-03T01:24:00Z,27.2970,-97.4049,4.467,1111122 
TCOON,ioos:station:TCOON:068:1,2015-12-03T02:24:00Z,27.2970,-97.4049,4.464,1111122 
TCOON,ioos:station:TCOON:068:1,2015-12-03T05:30:00Z,27.2970,-97.4049,4.457,1111122 
TCOON,ioos:station:TCOON:068:1,2015-12-03T14:30:00Z,27.2970,-97.4049,4.445,1111122 
TCOON,ioos:station:TCOON:068:1,2015-12-03T15:36:00Z,27.2970,-97.4049,4.446,1111122 
TCOON,ioos:station:TCOON:068:1,2015-12-03T16:24:00Z,27.2970,-97.4049,4.441,1111122 
TCOON,ioos:station:TCOON:068:1,2015-12-03T17:30:00Z,27.2970,-97.4049,4.435,1111122 
TCOON,ioos:station:TCOON:068:1,2015-12-03T18:30:00Z,27.2970,-97.4049,4.439,1111122 
TCOON,ioos:station:TCOON:068:1,2015-12-03T19:24:00Z,27.2970,-97.4049,4.443,1111122 
TCOON,ioos:station:TCOON:068:1,2015-12-03T20:30:00Z,27.2970,-97.4049,4.443,1111122 
TCOON,ioos:station:TCOON:068:1,2015-12-03T21:30:00Z,27.2970,-97.4049,4.441,1111122 
TCOON,ioos:station:TCOON:068:1,2015-12-03T22:30:00Z,27.2970,-97.4049,4.432,1111122 
TCOON,ioos:station:TCOON:068:1,2015-12-03T23:24:00Z,27.2970,-97.4049,4.423,1111122 
TCOON,ioos:station:TCOON:068:1,2015-12-04T00:24:00Z,27.2970,-97.4049,4.42,1111122 
TCOON,ioos:station:TCOON:068:1,2015-12-04T01:24:00Z,27.2970,-97.4049,4.421,1111122 
TCOON,ioos:station:TCOON:068:1,2015-12-04T02:36:00Z,27.2970,-97.4049,4.432,1111122 
TCOON,ioos:station:TCOON:068:1,2015-12-04T03:24:00Z,27.2970,-97.4049,4.43,1111122 
TCOON,ioos:station:TCOON:068:1,2015-12-04T04:24:00Z,27.2970,-97.4049,4.432,1111122 
TCOON,ioos:station:TCOON:068:1,2015-12-04T05:30:00Z,27.2970,-97.4049,4.431,1111122 
TCOON,ioos:station:TCOON:068:1,2015-12-04T06:30:00Z,27.2970,-97.4049,4.428,1111122 
TCOON,ioos:station:TCOON:068:1,2015-12-04T07:30:00Z,27.2970,-97.4049,4.426,1111122 
TCOON,ioos:station:TCOON:068:1,2015-12-04T08:30:00Z,27.2970,-97.4049,4.423,1111122 
TCOON,ioos:station:TCOON:068:1,2015-12-04T09:30:00Z,27.2970,-97.4049,4.424,1111122 
TCOON,ioos:station:TCOON:068:1,2015-12-04T10:24:00Z,27.2970,-97.4049,4.423,1111122 
TCOON,ioos:station:TCOON:068:1,2015-12-04T11:30:00Z,27.2970,-97.4049,4.42,1111122 
TCOON,ioos:station:TCOON:068:1,2015-12-04T12:30:00Z,27.2970,-97.4049,4.415,1111122 
TCOON,ioos:station:TCOON:068:1,2015-12-04T13:30:00Z,27.2970,-97.4049,4.414,1111122 
TCOON,ioos:station:TCOON:068:1,2015-12-04T14:24:00Z,27.2970,-97.4049,4.413,1111122 
TCOON,ioos:station:TCOON:068:1,2015-12-04T15:30:00Z,27.2970,-97.4049,4.412,1111122 
TCOON,ioos:station:TCOON:068:1,2015-12-04T16:30:00Z,27.2970,-97.4049,4.428,1111122 
TCOON,ioos:station:TCOON:068:1,2015-12-04T17:30:00Z,27.2970,-97.4049,4.416,1111122 
TCOON,ioos:station:TCOON:068:1,2015-12-04T18:18:00Z,27.2970,-97.4049,4.421,1111122 
TCOON,ioos:station:TCOON:068:1,2015-12-05T00:48:00Z,27.2970,-97.4049,4.434,1111122 
TCOON,ioos:station:TCOON:068:1,2015-12-05T06:42:00Z,27.2970,-97.4049,4.413,1111122 
TCOON,ioos:station:TCOON:068:1,2015-12-05T12:48:00Z,27.2970,-97.4049,4.423,1111122 
TCOON,ioos:station:TCOON:068:1,2015-12-05T18:48:00Z,27.2970,-97.4049,4.415,1111122 
TCOON,ioos:station:TCOON:068:1,2015-12-06T00:48:00Z,27.2970,-97.4049,4.417,1111122 
TCOON,ioos:station:TCOON:068:1,2015-12-06T06:42:00Z,27.2970,-97.4049,4.404,1111122 
TCOON,ioos:station:TCOON:068:1,2015-12-06T11:18:00Z,27.2970,-97.4049,4.398,1111122 
TCOON,ioos:station:TCOON:068:1,2015-12-06T16:42:00Z,27.2970,-97.4049,4.408,1111122 
TCOON,ioos:station:TCOON:068:1,2015-12-06T17:18:00Z,27.2970,-97.4049,4.407,1111122 
TCOON,ioos:station:TCOON:068:1,2015-12-06T18:18:00Z,27.2970,-97.4049,4.403,1111122 
TCOON,ioos:station:TCOON:068:1,2015-12-06T19:18:00Z,27.2970,-97.4049,4.407,1111122 
TCOON,ioos:station:TCOON:068:1,2015-12-06T20:18:00Z,27.2970,-97.4049,4.399,1111122 
TCOON,ioos:station:TCOON:068:1,2015-12-06T21:18:00Z,27.2970,-97.4049,4.393,1111122 
TCOON,ioos:station:TCOON:068:1,2015-12-06T22:24:00Z,27.2970,-97.4049,4.384,1111122 
TCOON,ioos:station:TCOON:068:1,2015-12-06T23:18:00Z,27.2970,-97.4049,4.385,1111122 
TCOON,ioos:station:TCOON:068:1,2015-12-07T00:18:00Z,27.2970,-97.4049,4.391,1111122 
TCOON,ioos:station:TCOON:068:1,2015-12-07T01:18:00Z,27.2970,-97.4049,4.396,1111122 
TCOON,ioos:station:TCOON:068:1,2015-12-07T02:24:00Z,27.2970,-97.4049,4.401,1111122 
TCOON,ioos:station:TCOON:068:1,2015-12-07T03:12:00Z,27.2970,-97.4049,4.399,1111122 
TCOON,ioos:station:TCOON:068:1,2015-12-07T05:06:00Z,27.2970,-97.4049,4.388,1111122 
TCOON,ioos:station:TCOON:068:1,2015-12-07T06:18:00Z,27.2970,-97.4049,4.387,1111122 
TCOON,ioos:station:TCOON:068:1,2015-12-07T07:18:00Z,27.2970,-97.4049,4.384,1111122 
TCOON,ioos:station:TCOON:068:1,2015-12-07T08:18:00Z,27.2970,-97.4049,4.384,1111122 
TCOON,ioos:station:TCOON:068:1,2015-12-07T09:18:00Z,27.2970,-97.4049,4.379,1111122 
TCOON,ioos:station:TCOON:068:1,2015-12-07T10:18:00Z,27.2970,-97.4049,4.378,1111122 
TCOON,ioos:station:TCOON:068:1,2015-12-07T11:30:00Z,27.2970,-97.4049,4.373,1111122 
TCOON,ioos:station:TCOON:068:1,2015-12-07T12:18:00Z,27.2970,-97.4049,4.373,1111122 
TCOON,ioos:station:TCOON:068:1,2015-12-07T13:18:00Z,27.2970,-97.4049,4.374,1111122 
TCOON,ioos:station:TCOON:068:1,2015-12-07T14:18:00Z,27.2970,-97.4049,4.371,1111122 
TCOON,ioos:station:TCOON:068:1,2015-12-07T15:18:00Z,27.2970,-97.4049,4.371,1111122 
TCOON,ioos:station:TCOON:068:1,2015-12-07T16:18:00Z,27.2970,-97.4049,4.371,1111122 
TCOON,ioos:station:TCOON:068:1,2015-12-07T17:18:00Z,27.2970,-97.4049,4.37,1111122 
TCOON,ioos:station:TCOON:068:1,2015-12-07T18:18:00Z,27.2970,-97.4049,4.367,1111122 
TCOON,ioos:station:TCOON:068:1,2015-12-07T19:18:00Z,27.2970,-97.4049,4.367,1111122 
TCOON,ioos:station:TCOON:068:1,2015-12-07T21:18:00Z,27.2970,-97.4049,4.358,1111122 
TCOON,ioos:station:TCOON:068:1,2015-12-07T22:18:00Z,27.2970,-97.4049,4.353,1111122 
TCOON,ioos:station:TCOON:068:1,2015-12-07T23:18:00Z,27.2970,-97.4049,4.347,1111122 
TCOON,ioos:station:TCOON:068:1,2015-12-08T00:18:00Z,27.2970,-97.4049,4.339,1111122 
TCOON,ioos:station:TCOON:068:1,2015-12-08T01:42:00Z,27.2970,-97.4049,4.345,1111122 
TCOON,ioos:station:TCOON:068:1,2015-12-08T02:18:00Z,27.2970,-97.4049,4.346,1111122 
TCOON,ioos:station:TCOON:068:1,2015-12-08T03:18:00Z,27.2970,-97.4049,4.346,1111122 
TCOON,ioos:station:TCOON:068:1,2015-12-08T04:18:00Z,27.2970,-97.4049,4.349,1111122 
TCOON,ioos:station:TCOON:068:1,2015-12-08T05:18:00Z,27.2970,-97.4049,4.346,1111122 
TCOON,ioos:station:TCOON:068:1,2015-12-08T06:18:00Z,27.2970,-97.4049,4.345,1111122 
TCOON,ioos:station:TCOON:068:1,2015-12-08T07:12:00Z,27.2970,-97.4049,4.346,1111122 
TCOON,ioos:station:TCOON:068:1,2015-12-08T08:18:00Z,27.2970,-97.4049,4.343,1111122 
TCOON,ioos:station:TCOON:068:1,2015-12-08T09:24:00Z,27.2970,-97.4049,4.338,1111122 
TCOON,ioos:station:TCOON:068:1,2015-12-08T10:18:00Z,27.2970,-97.4049,4.342,1111122 
TCOON,ioos:station:TCOON:068:1,2015-12-08T11:12:00Z,27.2970,-97.4049,4.348,1111122 
TCOON,ioos:station:TCOON:068:1,2015-12-08T12:18:00Z,27.2970,-97.4049,4.343,1111122 
TCOON,ioos:station:TCOON:068:1,2015-12-08T13:18:00Z,27.2970,-97.4049,4.342,1111122 
TCOON,ioos:station:TCOON:068:1,2015-12-08T14:18:00Z,27.2970,-97.4049,4.337,1111122 
TCOON,ioos:station:TCOON:068:1,2015-12-08T15:18:00Z,27.2970,-97.4049,4.332,1111122 
TCOON,ioos:station:TCOON:068:1,2015-12-08T16:12:00Z,27.2970,-97.4049,4.333,1111122 
TCOON,ioos:station:TCOON:068:1,2015-12-08T17:18:00Z,27.2970,-97.4049,4.333,1111122 
TCOON,ioos:station:TCOON:068:1,2015-12-08T18:24:00Z,27.2970,-97.4049,4.328,1111122 
TCOON,ioos:station:TCOON:068:1,2015-12-08T19:18:00Z,27.2970,-97.4049,4.325,1111122 
TCOON,ioos:station:TCOON:068:1,2015-12-08T20:18:00Z,27.2970,-97.4049,4.323,1111122 
TCOON,ioos:station:TCOON:068:1,2015-12-08T21:18:00Z,27.2970,-97.4049,4.317,1111122 
TCOON,ioos:station:TCOON:068:1,2015-12-08T22:18:00Z,27.2970,-97.4049,4.311,1111122 
TCOON,ioos:station:TCOON:068:1,2015-12-08T23:18:00Z,27.2970,-97.4049,4.308,1111122 
TCOON,ioos:station:TCOON:068:1,2015-12-09T00:18:00Z,27.2970,-97.4049,4.309,1111122 
TCOON,ioos:station:TCOON:068:1,2015-12-09T01:18:00Z,27.2970,-97.4049,4.316,1111122 
TCOON,ioos:station:TCOON:068:1,2015-12-09T02:18:00Z,27.2970,-97.4049,4.321,1111122 
TCOON,ioos:station:TCOON:068:1,2015-12-09T03:18:00Z,27.2970,-97.4049,4.316,1111122 
TCOON,ioos:station:TCOON:068:1,2015-12-09T04:18:00Z,27.2970,-97.4049,4.316,1111122 
TCOON,ioos:station:TCOON:068:1,2015-12-09T05:18:00Z,27.2970,-97.4049,4.315,1111122 
TCOON,ioos:station:TCOON:068:1,2015-12-09T06:18:00Z,27.2970,-97.4049,4.315,1111122 
TCOON,ioos:station:TCOON:068:1,2015-12-09T07:12:00Z,27.2970,-97.4049,4.318,1111122 
TCOON,ioos:station:TCOON:068:1,2015-12-09T08:18:00Z,27.2970,-97.4049,4.311,1111122 
TCOON,ioos:station:TCOON:068:1,2015-12-09T09:24:00Z,27.2970,-97.4049,4.312,1111122 
TCOON,ioos:station:TCOON:068:1,2015-12-09T10:18:00Z,27.2970,-97.4049,4.313,1111122 
TCOON,ioos:station:TCOON:068:1,2015-12-09T11:18:00Z,27.2970,-97.4049,4.312,1111122 
TCOON,ioos:station:TCOON:068:1,2015-12-09T12:18:00Z,27.2970,-97.4049,4.312,1111122 
TCOON,ioos:station:TCOON:068:1,2015-12-09T13:18:00Z,27.2970,-97.4049,4.311,1111122 
TCOON,ioos:station:TCOON:068:1,2015-12-09T14:18:00Z,27.2970,-97.4049,4.3,1111122 
TCOON,ioos:station:TCOON:068:1,2015-12-09T15:18:00Z,27.2970,-97.4049,4.318,1111122 
TCOON,ioos:station:TCOON:068:1,2015-12-09T16:18:00Z,27.2970,-97.4049,4.319,1111122 
TCOON,ioos:station:TCOON:068:1,2015-12-09T17:18:00Z,27.2970,-97.4049,4.313,1111122 
TCOON,ioos:station:TCOON:068:1,2015-12-09T18:18:00Z,27.2970,-97.4049,4.32,1111122 
TCOON,ioos:station:TCOON:068:1,2015-12-09T19:18:00Z,27.2970,-97.4049,4.311,1111122 
TCOON,ioos:station:TCOON:068:1,2015-12-09T20:18:00Z,27.2970,-97.4049,4.304,1111122 
TCOON,ioos:station:TCOON:068:1,2015-12-09T21:18:00Z,27.2970,-97.4049,4.299,1111122 
TCOON,ioos:station:TCOON:068:1,2015-12-09T22:18:00Z,27.2970,-97.4049,4.299,1111122 
TCOON,ioos:station:TCOON:068:1,2015-12-09T23:18:00Z,27.2970,-97.4049,4.297,1111122 
TCOON,ioos:station:TCOON:068:1,2015-12-10T00:18:00Z,27.2970,-97.4049,4.296,1111122 
TCOON,ioos:station:TCOON:068:1,2015-12-10T01:18:00Z,27.2970,-97.4049,4.303,1111122 
TCOON,ioos:station:TCOON:068:1,2015-12-10T02:18:00Z,27.2970,-97.4049,4.302,1111122 
TCOON,ioos:station:TCOON:068:1,2015-12-10T03:18:00Z,27.2970,-97.4049,4.301,1111122 
TCOON,ioos:station:TCOON:068:1,2015-12-10T04:18:00Z,27.2970,-97.4049,4.304,1111122 
TCOON,ioos:station:TCOON:068:1,2015-12-10T05:18:00Z,27.2970,-97.4049,4.305,1111122 
TCOON,ioos:station:TCOON:068:1,2015-12-10T06:18:00Z,27.2970,-97.4049,4.304,1111122 
TCOON,ioos:station:TCOON:068:1,2015-12-10T07:18:00Z,27.2970,-97.4049,4.299,1111122 
TCOON,ioos:station:TCOON:068:1,2015-12-10T08:18:00Z,27.2970,-97.4049,4.296,1111122 
TCOON,ioos:station:TCOON:068:1,2015-12-10T09:24:00Z,27.2970,-97.4049,4.297,1111122 
TCOON,ioos:station:TCOON:068:1,2015-12-10T10:18:00Z,27.2970,-97.4049,4.3,1111122 
TCOON,ioos:station:TCOON:068:1,2015-12-10T11:18:00Z,27.2970,-97.4049,4.302,1111122 
TCOON,ioos:station:TCOON:068:1,2015-12-10T12:18:00Z,27.2970,-97.4049,4.298,1111122 
TCOON,ioos:station:TCOON:068:1,2015-12-10T13:18:00Z,27.2970,-97.4049,4.288,1111122 
TCOON,ioos:station:TCOON:068:1,2015-12-10T14:18:00Z,27.2970,-97.4049,4.294,1111122 
TCOON,ioos:station:TCOON:068:1,2015-12-10T15:18:00Z,27.2970,-97.4049,4.293,1111122 
TCOON,ioos:station:TCOON:068:1,2015-12-10T16:18:00Z,27.2970,-97.4049,4.294,1111122 
TCOON,ioos:station:TCOON:068:1,2015-12-10T17:18:00Z,27.2970,-97.4049,4.294,1111122 
TCOON,ioos:station:TCOON:068:1,2015-12-10T18:18:00Z,27.2970,-97.4049,4.29,1111122 
TCOON,ioos:station:TCOON:068:1,2015-12-10T19:18:00Z,27.2970,-97.4049,4.29,1111122 
TCOON,ioos:station:TCOON:068:1,2015-12-10T20:18:00Z,27.2970,-97.4049,4.286,1111122 
TCOON,ioos:station:TCOON:068:1,2015-12-10T21:18:00Z,27.2970,-97.4049,4.274,1111122 
TCOON,ioos:station:TCOON:068:1,2015-12-10T22:18:00Z,27.2970,-97.4049,4.269,1111122 
TCOON,ioos:station:TCOON:068:1,2015-12-10T23:18:00Z,27.2970,-97.4049,4.272,1111122 
TCOON,ioos:station:TCOON:068:1,2015-12-11T00:18:00Z,27.2970,-97.4049,4.281,1111122 
TCOON,ioos:station:TCOON:068:1,2015-12-11T01:18:00Z,27.2970,-97.4049,4.287,1111122 
TCOON,ioos:station:TCOON:068:1,2015-12-11T02:18:00Z,27.2970,-97.4049,4.283,1111122 
TCOON,ioos:station:TCOON:068:1,2015-12-11T03:18:00Z,27.2970,-97.4049,4.277,1111122 
TCOON,ioos:station:TCOON:068:1,2015-12-11T04:18:00Z,27.2970,-97.4049,4.271,1111122 
TCOON,ioos:station:TCOON:068:1,2015-12-11T05:18:00Z,27.2970,-97.4049,4.262,1111122 
TCOON,ioos:station:TCOON:068:1,2015-12-11T06:18:00Z,27.2970,-97.4049,4.265,1111122 
TCOON,ioos:station:TCOON:068:1,2015-12-11T07:18:00Z,27.2970,-97.4049,4.265,1111122 
TCOON,ioos:station:TCOON:068:1,2015-12-11T08:18:00Z,27.2970,-97.4049,4.273,1111122 
TCOON,ioos:station:TCOON:068:1,2015-12-11T09:24:00Z,27.2970,-97.4049,4.265,1111122 
TCOON,ioos:station:TCOON:068:1,2015-12-11T10:18:00Z,27.2970,-97.4049,4.253,1111122 
TCOON,ioos:station:TCOON:068:1,2015-12-11T11:18:00Z,27.2970,-97.4049,4.255,1111122 
TCOON,ioos:station:TCOON:068:1,2015-12-11T12:18:00Z,27.2970,-97.4049,4.252,1111122 
TCOON,ioos:station:TCOON:068:1,2015-12-11T13:18:00Z,27.2970,-97.4049,4.254,1111122 
TCOON,ioos:station:TCOON:068:1,2015-12-11T14:18:00Z,27.2970,-97.4049,4.254,1111122 
TCOON,ioos:station:TCOON:068:1,2015-12-11T15:18:00Z,27.2970,-97.4049,4.246,1111122 
TCOON,ioos:station:TCOON:068:1,2015-12-11T16:18:00Z,27.2970,-97.4049,4.24,1111122 
TCOON,ioos:station:TCOON:068:1,2015-12-11T17:18:00Z,27.2970,-97.4049,4.233,1111122 
TCOON,ioos:station:TCOON:068:1,2015-12-11T18:24:00Z,27.2970,-97.4049,4.236,1111122 
TCOON,ioos:station:TCOON:068:1,2015-12-11T19:18:00Z,27.2970,-97.4049,4.232,1111122 
TCOON,ioos:station:TCOON:068:1,2015-12-11T20:18:00Z,27.2970,-97.4049,4.233,1111122 
TCOON,ioos:station:TCOON:068:1,2015-12-11T21:18:00Z,27.2970,-97.4049,4.228,1111122 
TCOON,ioos:station:TCOON:068:1,2015-12-11T22:24:00Z,27.2970,-97.4049,4.219,1111122 
TCOON,ioos:station:TCOON:068:1,2015-12-11T23:18:00Z,27.2970,-97.4049,4.217,1111122 
TCOON,ioos:station:TCOON:068:1,2015-12-12T00:18:00Z,27.2970,-97.4049,4.215,1111122 
TCOON,ioos:station:TCOON:068:1,2015-12-12T01:18:00Z,27.2970,-97.4049,4.222,1111122 
TCOON,ioos:station:TCOON:068:1,2015-12-12T02:18:00Z,27.2970,-97.4049,4.223,1111122 
TCOON,ioos:station:TCOON:068:1,2015-12-12T03:18:00Z,27.2970,-97.4049,4.219,1111122 
TCOON,ioos:station:TCOON:068:1,2015-12-12T04:18:00Z,27.2970,-97.4049,4.215,1111122 
TCOON,ioos:station:TCOON:068:1,2015-12-12T05:18:00Z,27.2970,-97.4049,4.211,1111122 
TCOON,ioos:station:TCOON:068:1,2015-12-12T06:18:00Z,27.2970,-97.4049,4.221,1111122 
TCOON,ioos:station:TCOON:068:1,2015-12-12T07:18:00Z,27.2970,-97.4049,4.219,1111122 
TCOON,ioos:station:TCOON:068:1,2015-12-12T08:18:00Z,27.2970,-97.4049,4.22,1111122 
TCOON,ioos:station:TCOON:068:1,2015-12-12T09:18:00Z,27.2970,-97.4049,4.214,1111122 
TCOON,ioos:station:TCOON:068:1,2015-12-12T10:18:00Z,27.2970,-97.4049,4.214,1111122 
TCOON,ioos:station:TCOON:068:1,2015-12-12T11:18:00Z,27.2970,-97.4049,4.21,1111122 
TCOON,ioos:station:TCOON:068:1,2015-12-12T12:18:00Z,27.2970,-97.4049,4.212,1111122 
TCOON,ioos:station:TCOON:068:1,2015-12-12T13:18:00Z,27.2970,-97.4049,4.213,1111122 
TCOON,ioos:station:TCOON:068:1,2015-12-12T14:18:00Z,27.2970,-97.4049,4.216,1111122 
TCOON,ioos:station:TCOON:068:1,2015-12-12T15:18:00Z,27.2970,-97.4049,4.234,1111122 
TCOON,ioos:station:TCOON:068:1,2015-12-12T16:18:00Z,27.2970,-97.4049,4.224,1111122 
TCOON,ioos:station:TCOON:068:1,2015-12-12T17:18:00Z,27.2970,-97.4049,4.219,1111122 
TCOON,ioos:station:TCOON:068:1,2015-12-12T18:18:00Z,27.2970,-97.4049,4.217,1111122 
TCOON,ioos:station:TCOON:068:1,2015-12-12T19:18:00Z,27.2970,-97.4049,4.226,1111122 
TCOON,ioos:station:TCOON:068:1,2015-12-12T20:18:00Z,27.2970,-97.4049,4.225,1111122 
TCOON,ioos:station:TCOON:068:1,2015-12-12T21:18:00Z,27.2970,-97.4049,4.215,1111122 
TCOON,ioos:station:TCOON:068:1,2015-12-12T22:18:00Z,27.2970,-97.4049,4.205,1111122 
TCOON,ioos:station:TCOON:068:1,2015-12-12T23:12:00Z,27.2970,-97.4049,4.196,1111122 
TCOON,ioos:station:TCOON:068:1,2015-12-13T00:18:00Z,27.2970,-97.4049,4.198,1111122 
TCOON,ioos:station:TCOON:068:1,2015-12-13T01:18:00Z,27.2970,-97.4049,4.21,1111122 
TCOON,ioos:station:TCOON:068:1,2015-12-13T02:18:00Z,27.2970,-97.4049,4.209,1111122 
TCOON,ioos:station:TCOON:068:1,2015-12-13T03:18:00Z,27.2970,-97.4049,4.194,1111122 
TCOON,ioos:station:TCOON:068:1,2015-12-13T04:18:00Z,27.2970,-97.4049,4.187,1111122 
TCOON,ioos:station:TCOON:068:1,2015-12-13T05:18:00Z,27.2970,-97.4049,4.199,1111122 
TCOON,ioos:station:TCOON:068:1,2015-12-13T06:18:00Z,27.2970,-97.4049,4.172,1111122 
TCOON,ioos:station:TCOON:068:1,2015-12-13T07:18:00Z,27.2970,-97.4049,4.161,1111122 
TCOON,ioos:station:TCOON:068:1,2015-12-13T08:18:00Z,27.2970,-97.4049,4.167,1111122 
TCOON,ioos:station:TCOON:068:1,2015-12-13T09:18:00Z,27.2970,-97.4049,4.197,1111122 
TCOON,ioos:station:TCOON:068:1,2015-12-13T10:18:00Z,27.2970,-97.4049,4.278,1111122 
TCOON,ioos:station:TCOON:068:1,2015-12-13T11:18:00Z,27.2970,-97.4049,4.234,1111122 
TCOON,ioos:station:TCOON:068:1,2015-12-13T12:18:00Z,27.2970,-97.4049,4.125,1111122 
TCOON,ioos:station:TCOON:068:1,2015-12-13T13:18:00Z,27.2970,-97.4049,4.215,1111122 
TCOON,ioos:station:TCOON:068:1,2015-12-13T14:18:00Z,27.2970,-97.4049,4.218,1111122 
TCOON,ioos:station:TCOON:068:1,2015-12-13T15:18:00Z,27.2970,-97.4049,4.27,1111122 
TCOON,ioos:station:TCOON:068:1,2015-12-13T16:18:00Z,27.2970,-97.4049,4.263,1111122 
TCOON,ioos:station:TCOON:068:1,2015-12-13T17:18:00Z,27.2970,-97.4049,4.229,1111122 
TCOON,ioos:station:TCOON:068:1,2015-12-13T18:18:00Z,27.2970,-97.4049,4.227,1111122 
TCOON,ioos:station:TCOON:068:1,2015-12-13T19:18:00Z,27.2970,-97.4049,4.239,1111122 
TCOON,ioos:station:TCOON:068:1,2015-12-13T20:18:00Z,27.2970,-97.4049,4.23,1111122 
TCOON,ioos:station:TCOON:068:1,2015-12-13T21:18:00Z,27.2970,-97.4049,4.22,1111122 
TCOON,ioos:station:TCOON:068:1,2015-12-13T22:18:00Z,27.2970,-97.4049,4.233,1111122 
TCOON,ioos:station:TCOON:068:1,2015-12-13T23:18:00Z,27.2970,-97.4049,4.244,1111122 
TCOON,ioos:station:TCOON:068:1,2015-12-14T00:18:00Z,27.2970,-97.4049,4.25,1111122 
TCOON,ioos:station:TCOON:068:1,2015-12-14T02:00:00Z,27.2970,-97.4049,4.254,1111122 
TCOON,ioos:station:TCOON:068:1,2015-12-14T02:18:00Z,27.2970,-97.4049,4.254,1111122 
TCOON,ioos:station:TCOON:068:1,2015-12-14T03:18:00Z,27.2970,-97.4049,4.255,1111122 
TCOON,ioos:station:TCOON:068:1,2015-12-14T04:18:00Z,27.2970,-97.4049,4.261,1111122 
TCOON,ioos:station:TCOON:068:1,2015-12-14T05:18:00Z,27.2970,-97.4049,4.276,1111122 
TCOON,ioos:station:TCOON:068:1,2015-12-14T06:24:00Z,27.2970,-97.4049,4.287,1111122 
TCOON,ioos:station:TCOON:068:1,2015-12-14T07:18:00Z,27.2970,-97.4049,4.294,1111122 
TCOON,ioos:station:TCOON:068:1,2015-12-14T08:18:00Z,27.2970,-97.4049,4.298,1111122 
TCOON,ioos:station:TCOON:068:1,2015-12-14T09:24:00Z,27.2970,-97.4049,4.295,1111122 
TCOON,ioos:station:TCOON:068:1,2015-12-14T10:18:00Z,27.2970,-97.4049,4.284,1111122 
TCOON,ioos:station:TCOON:068:1,2015-12-14T11:18:00Z,27.2970,-97.4049,4.284,1111122 
TCOON,ioos:station:TCOON:068:1,2015-12-14T12:18:00Z,27.2970,-97.4049,4.285,1111122 
TCOON,ioos:station:TCOON:068:1,2015-12-14T13:18:00Z,27.2970,-97.4049,4.29,1111122 
TCOON,ioos:station:TCOON:068:1,2015-12-14T14:30:00Z,27.2970,-97.4049,4.299,1111122 
TCOON,ioos:station:TCOON:068:1,2015-12-14T15:18:00Z,27.2970,-97.4049,4.303,1111122 
TCOON,ioos:station:TCOON:068:1,2015-12-14T16:18:00Z,27.2970,-97.4049,4.301,1111122 
TCOON,ioos:station:TCOON:068:1,2015-12-14T17:18:00Z,27.2970,-97.4049,4.301,1111122 
TCOON,ioos:station:TCOON:068:1,2015-12-14T18:18:00Z,27.2970,-97.4049,4.303,1111122 
TCOON,ioos:station:TCOON:068:1,2015-12-14T19:18:00Z,27.2970,-97.4049,4.298,1111122 
TCOON,ioos:station:TCOON:068:1,2015-12-14T20:18:00Z,27.2970,-97.4049,4.298,1111122 
TCOON,ioos:station:TCOON:068:1,2015-12-14T21:18:00Z,27.2970,-97.4049,4.297,1111122 
TCOON,ioos:station:TCOON:068:1,2015-12-14T22:18:00Z,27.2970,-97.4049,4.296,1111122 